This demonstration page uses our WeatherBlox Daily Observations layout. Learn more.

Left ArrowRight Arrow

38.80484, -77.04692

Hourly Observations for February 28, 2017

Temp ( °F °C ) Dew Point ( °F °C ) Humidity (%) Winds ( mph kmh ) Pressure ( in mb ) Visibility ( mi km ) Precip ( " mm )
12:52 am 00:52 Mostly Cloudy 51 10.6 34 1.1 52 52 Calm 30.36 1028 10 16 0.00 0.00
1:52 am 01:52 Cloudy 51 10.6 35 1.7 54 54 ESE 3 6 30.35 1028 10 16 0.00 0.00
2:52 am 02:52 Cloudy 50 10 36 2.2 59 59 Calm 30.33 1027 10 16 0.00 0.00
3:52 am 03:52 Mostly Cloudy 50 10 34 1.1 54 54 Calm 30.32 1027 10 16 0.00 0.00
4:52 am 04:52 Mostly Cloudy 49 9.4 36 2.2 61 61 Calm 30.32 1027 10 16 0.00 0.00
5:52 am 05:52 Mostly Cloudy 49 9.4 40 4.4 71 71 NNE 3 6 30.32 1027 10 16 0.00 0.00
6:52 am 06:52 Partly Cloudy 47 8.3 38 3.3 71 71 ENE 6 9 30.31 1027 10 16 0.00 0.00
7:52 am 07:52 Mostly Sunny 50 10 39 3.9 66 66 ENE 5 7 30.32 1027 10 16 0.00 0.00
8:52 am 08:52 Mostly Sunny 53 11.7 41 5 64 64 Calm 30.31 1027 10 16 0.00 0.00
9:52 am 09:52 Partly Cloudy 56 13.3 43 6.1 62 62 S 7 11 30.32 1027 10 16 0.00 0.00
10:52 am 10:52 Mostly Cloudy 61 16.1 45 7.2 56 56 S 7 11 30.29 1026 10 16 0.00 0.00
11:52 am 11:52 Mostly Cloudy 63 17.2 46 7.8 54 54 S 9 15 30.25 1024 10 16 0.00 0.00
12:52 pm 12:52 Cloudy 64 17.8 48 8.9 56 56 S 7 11 30.20 1023 10 16 0.00 0.00
1:52 pm 13:52 Cloudy 67 19.4 49 9.4 53 53 S 7 11 30.16 1022 10 16 0.00 0.00
2:52 pm 14:52 Cloudy 65 18.3 50 10 59 59 S 9 15 30.15 1021 10 16 0.00 0.00
3:52 pm 15:52 Cloudy 63 17.2 51 10.6 65 65 S 8 13 30.14 1021 10 16 0.00 0.00
4:52 pm 16:52 Cloudy 65 18.3 51 10.6 61 61 WSW 3 6 30.14 1021 10 16 0.00 0.00
5:52 pm 17:52 Cloudy with Light Rain 65 18.3 53 11.7 66 66 W 5 7 30.16 1021 7 11 0.01 0.25
6:52 pm 18:52 Cloudy with Rain 59 15 56 13.3 90 90 S 5 7 30.14 1021 6 10 0.11 2.79
7:52 pm 19:52 Cloudy with Light Rain 57 13.9 56 13.3 96 96 S 6 9 30.11 1020 9 14 0.11 2.79
8:52 pm 20:52 Cloudy with Light Rain 57 13.9 57 13.9 100 100 S 8 13 30.07 1018 6 10 0.07 1.78
9:52 pm 21:52 Cloudy with Light Rain 57 13.9 57 13.9 100 100 S 7 11 30.05 1018 9 14 0.04 1.02
10:52 pm 22:52 Cloudy with Light Rain 58 14.4 57 13.9 97 97 S 7 11 30.03 1017 10 16 0.00 0.03
11:25 pm 23:25 Cloudy with Light Rain 57 13.9 56 13.3 96 96 S 7 11 30.03 1017 7 11 0.00 0.03
11:31 pm 23:31 Cloudy with Light Rain 57 13.9 56 13.3 96 96 S 6 9 30.03 1017 7 11 0.00 0.03
11:52 pm 23:52 Cloudy with Light Rain 57 13.9 56 13.3 96 96 S 6 9 30.01 1016 6 10 0.00 0.03

Powered by AerisWeather